| time (UTC) | temp F | wind direction | speed knots | gust knots | rain 1hr in | rain 24hr in | rain mn in | humidity % | barometer mb |
| 20260504190052 | 63 | 347 | 0.0 | 5.2 | 0.00 | 0.00 | 0.00 | 27 | 999.2 |
| 20260504184550 | 62 | 259 | 0.0 | 3.5 | 0.00 | 0.00 | 0.00 | 29 | 999.0 |
| 20260504183044 | 62 | 267 | 0.0 | 1.7 | 0.00 | 0.00 | 0.00 | 30 | 999.1 |
| 20260504181542 | 62 | 256 | 0.0 | 13.0 | 0.00 | 0.00 | 0.00 | 26 | 999.1 |
| 20260504180042 | 64 | 250 | 0.0 | 4.3 | 0.00 | 0.00 | 0.00 | 25 | 999.2 |
| 20260504174544 | 65 | 230 | 0.0 | 1.7 | 0.00 | 0.00 | 0.00 | 25 | 999.4 |
| 20260504173037 | 65 | 311 | 0.0 | 1.7 | 0.00 | 0.00 | 0.00 | 27 | 999.6 |
| 20260504171537 | 63 | 239 | 0.0 | 7.8 | 0.00 | 0.00 | 0.00 | 26 | 999.8 |
| 20260504120104 | 53 | 255 | 0.9 | 6.1 | 0.00 | 0.00 | 0.00 | 26 | 999.6 |
| 20260504081529 | 43 | 55 | 0.0 | 0.0 | 0.00 | 0.00 | 0.00 | 50 | 1000.4 |
| 20260504050006 | 47 | 55 | 0.0 | 0.0 | 0.00 | 0.00 | 0.00 | 43 | 1001.8 |
| 20260504044506 | 47 | 55 | 0.0 | 0.0 | 0.00 | 0.00 | 0.00 | 43 | 1001.8 |
| 20260504043002 | 49 | 55 | 0.0 | 0.0 | 0.00 | 0.00 | 0.00 | 40 | 1002.0 |
| 20260504041601 | 51 | 55 | 0.0 | 0.0 | 0.00 | 0.00 | 0.00 | 38 | 1002.2 |
| 20260504040132 | 52 | 55 | 0.0 | 0.0 | 0.00 | 0.00 | 0.00 | 35 | 1002.3 |
| 20260504034603 | 53 | 55 | 0.0 | 0.0 | 0.00 | 0.00 | 0.00 | 33 | 1002.4 |
| 20260504033057 | 54 | 298 | 0.0 | 0.0 | 0.00 | 0.00 | 0.00 | 26 | 1002.2 |
| 20260504031612 | 55 | 298 | 0.0 | 0.0 | 0.00 | 0.00 | 0.00 | 25 | 1002.2 |
| 20260504030055 | 56 | 298 | 0.0 | 0.0 | 0.00 | 0.00 | 0.00 | 25 | 1001.9 |
| 20260504024602 | 56 | 298 | 0.0 | 1.7 | 0.00 | 0.00 | 0.00 | 24 | 1001.6 |
| 20260504023055 | 57 | 298 | 0.0 | 1.7 | 0.00 | 0.00 | 0.00 | 23 | 1001.5 |
| 20260504021554 | 57 | 298 | 0.0 | 0.0 | 0.00 | 0.00 | 0.00 | 22 | 1001.5 |
| 20260504020108 | 57 | 299 | 0.0 | 0.0 | 0.00 | 0.00 | 0.00 | 22 | 1001.3 |
| 20260504014553 | 59 | 299 | 0.0 | 0.0 | 0.00 | 0.00 | 0.00 | 21 | 1001.3 |
| 20260504013052 | 60 | 296 | 0.0 | 0.0 | 0.00 | 0.00 | 0.00 | 20 | 1001.2 |
| 20260504011551 | 61 | 297 | 0.0 | 0.0 | 0.00 | 0.00 | 0.00 | 19 | 1001.2 |
| 20260504010053 | 61 | 281 | 0.0 | 6.1 | 0.00 | 0.00 | 0.00 | 19 | 1001.4 |
| 20260504004549 | 62 | 256 | 0.0 | 0.9 | 0.00 | 0.00 | 0.00 | 21 | 1001.3 |
| 20260504003051 | 63 | 345 | 0.0 | 4.3 | 0.00 | 0.00 | 0.00 | 20 | 1001.4 |
| 20260504001553 | 63 | 304 | 0.0 | 1.7 | 0.00 | 0.00 | 0.00 | 21 | 1001.5 |
| 20260504000050 | 63 | 298 | 0.0 | 6.1 | 0.00 | 0.00 | 0.00 | 20 | 1001.7 |
| 20260503234603 | 63 | 341 | 0.0 | 1.7 | 0.00 | 0.00 | 0.00 | 20 | 1001.6 |
| 20260503233049 | 64 | 292 | 0.0 | 2.6 | 0.00 | 0.00 | 0.00 | 19 | 1001.5 |
| 20260503231544 | 65 | 333 | 0.0 | 1.7 | 0.00 | 0.00 | 0.00 | 22 | 1001.6 |
| 20260503230047 | 64 | 329 | 0.0 | 4.3 | 0.00 | 0.00 | 0.00 | 22 | 1001.8 |
| 20260503224542 | 64 | 330 | 0.9 | 8.7 | 0.00 | 0.00 | 0.00 | 20 | 1001.8 |
| 20260503223041 | 65 | 311 | 0.0 | 7.8 | 0.00 | 0.00 | 0.00 | 20 | 1001.8 |
| 20260503221548 | 65 | 321 | 0.0 | 7.0 | 0.00 | 0.00 | 0.00 | 20 | 1001.7 |
| 20260503220039 | 64 | 243 | 0.0 | 7.0 | 0.00 | 0.00 | 0.00 | 19 | 1001.9 |
| 20260503214536 | 64 | 323 | 0.0 | 4.3 | 0.00 | 0.00 | 0.00 | 22 | 1002.2 |
| 20260503213037 | 64 | 337 | 0.0 | 0.9 | 0.00 | 0.00 | 0.00 | 21 | 1002.5 |
| 20260503211534 | 64 | 355 | 0.0 | 1.7 | 0.00 | 0.00 | 0.00 | 20 | 1002.6 |
| 20260503210031 | 64 | 336 | 0.0 | 1.7 | 0.00 | 0.00 | 0.00 | 20 | 1002.8 |
| 20260503204529 | 64 | 324 | 0.0 | 13.0 | 0.00 | 0.00 | 0.00 | 20 | 1003.3 |
| 20260503203028 | 65 | 306 | 0.0 | 6.1 | 0.00 | 0.00 | 0.00 | 20 | 1003.6 |
| 20260503201527 | 65 | 341 | 0.0 | 3.5 | 0.00 | 0.00 | 0.00 | 19 | 1003.7 |
| 20260503200028 | 63 | 290 | 0.0 | 9.6 | 0.00 | 0.00 | 0.00 | 19 | 1003.8 |
| 20260503194526 | 64 | 306 | 0.0 | 5.2 | 0.00 | 0.00 | 0.00 | 20 | 1003.9 |
| 20260503193024 | 63 | 265 | 0.0 | 8.7 | 0.00 | 0.00 | 0.00 | 20 | 1004.1 |
| 20260503191529 | 62 | 282 | 1.7 | 12.2 | 0.00 | 0.00 | 0.00 | 19 | 1004.2 |